Time,TemperatureF,DewpointF,PressureIn,WindDirection,WindDirectionDegrees,WindSpeedMPH,WindSpeedGustMPH,Humidity,HourlyPrecipIn,Conditions,Clouds,dailyrainin,SolarRadiationWatts/m^2,SoftwareType,DateUTC
2018-02-18 00:00:00,53.4,34.7,29.98,SSE,165,0.0,0.0,49,0.00,,,0.00,0,Wunderground v.1.15,2018-02-18 08:00:00,
2018-02-18 00:05:00,53.3,34.6,29.98,SSE,165,0.0,0.0,49,0.00,,,0.00,0,Wunderground v.1.15,2018-02-18 08:05:00,
2018-02-18 00:14:00,53.2,35.0,29.98,SSE,165,0.0,0.0,50,0.00,,,0.00,0,Wunderground v.1.15,2018-02-18 08:14:00,
2018-02-18 00:20:00,53.2,35.0,29.98,SSE,165,0.0,0.0,50,0.00,,,0.00,0,Wunderground v.1.15,2018-02-18 08:20:00,
2018-02-18 00:30:00,53.2,35.0,29.98,SSE,165,0.0,0.0,50,0.00,,,0.00,0,Wunderground v.1.15,2018-02-18 08:30:00,
2018-02-18 00:35:00,53.1,34.9,29.98,SSE,165,0.0,0.0,50,0.00,,,0.00,0,Wunderground v.1.15,2018-02-18 08:35:00,
2018-02-18 00:40:00,53.0,34.8,29.98,SSE,165,0.0,0.0,50,0.00,,,0.00,0,Wunderground v.1.15,2018-02-18 08:40:00,
2018-02-18 00:45:00,52.9,34.8,29.98,SSE,165,0.0,0.0,50,0.00,,,0.00,0,Wunderground v.1.15,2018-02-18 08:45:00,
2018-02-18 00:55:00,52.7,34.6,29.98,SSE,165,0.0,0.0,50,0.00,,,0.00,0,Wunderground v.1.15,2018-02-18 08:55:00,
2018-02-18 01:00:00,52.6,35.0,29.98,SSE,165,0.0,0.0,51,0.00,,,0.00,0,Wunderground v.1.15,2018-02-18 09:00:00,
2018-02-18 01:05:00,52.6,35.0,29.97,SSE,165,0.0,0.0,51,0.00,,,0.00,0,Wunderground v.1.15,2018-02-18 09:05:00,
2018-02-18 01:20:00,52.6,35.5,29.97,SSE,165,0.0,0.0,52,0.00,,,0.00,0,Wunderground v.1.15,2018-02-18 09:20:00,
2018-02-18 01:30:00,52.6,35.5,29.97,SSE,165,0.0,0.0,52,0.00,,,0.00,0,Wunderground v.1.15,2018-02-18 09:30:00,
2018-02-18 01:35:00,52.5,35.4,29.97,SSE,165,0.0,0.0,52,0.00,,,0.00,0,Wunderground v.1.15,2018-02-18 09:35:00,
2018-02-18 01:40:00,52.5,35.8,29.97,SSE,165,0.0,0.0,53,0.00,,,0.00,0,Wunderground v.1.15,2018-02-18 09:40:00,
2018-02-18 01:45:00,52.4,35.8,29.97,South,169,0.0,0.0,53,0.00,,,0.00,0,Wunderground v.1.15,2018-02-18 09:45:00,
2018-02-18 01:50:00,52.3,36.1,29.97,South,169,0.0,0.0,54,0.00,,,0.00,0,Wunderground v.1.15,2018-02-18 09:50:00,
2018-02-18 01:55:00,52.3,36.1,29.97,South,169,0.0,0.0,54,0.00,,,0.00,0,Wunderground v.1.15,2018-02-18 09:55:00,
2018-02-18 02:05:00,52.2,36.0,29.96,South,177,0.0,0.0,54,0.00,,,0.00,0,Wunderground v.1.15,2018-02-18 10:05:00,
2018-02-18 02:10:00,52.3,36.1,29.96,South,178,0.0,0.0,54,0.00,,,0.00,0,Wunderground v.1.15,2018-02-18 10:10:00,
2018-02-18 02:15:00,52.3,35.7,29.96,South,178,0.0,0.0,53,0.00,,,0.00,0,Wunderground v.1.15,2018-02-18 10:15:00,
2018-02-18 02:20:00,52.3,35.7,29.96,South,178,0.0,0.0,53,0.00,,,0.00,0,Wunderground v.1.15,2018-02-18 10:20:00,
2018-02-18 02:25:00,52.3,35.7,29.95,South,178,0.0,0.0,53,0.00,,,0.00,0,Wunderground v.1.15,2018-02-18 10:25:00,
2018-02-18 02:35:00,52.2,35.6,29.95,South,178,0.0,0.0,53,0.00,,,0.00,0,Wunderground v.1.15,2018-02-18 10:35:00,
2018-02-18 02:40:00,52.1,35.5,29.95,South,178,0.0,0.0,53,0.00,,,0.00,0,Wunderground v.1.15,2018-02-18 10:40:00,
2018-02-18 02:45:00,52.0,35.4,29.95,South,178,0.0,0.0,53,0.00,,,0.00,0,Wunderground v.1.15,2018-02-18 10:45:00,
2018-02-18 02:54:00,52.1,35.0,29.95,South,178,0.0,0.0,52,0.00,,,0.00,0,Wunderground v.1.15,2018-02-18 10:54:00,
2018-02-18 02:59:00,52.1,35.0,29.95,SE,138,0.0,0.0,52,0.00,,,0.00,0,Wunderground v.1.15,2018-02-18 10:59:00,
2018-02-18 03:05:00,52.3,35.2,29.94,East,92,0.0,1.0,52,0.00,,,0.00,0,Wunderground v.1.15,2018-02-18 11:05:00,
2018-02-18 03:14:00,52.3,35.7,29.94,East,92,1.0,3.0,53,0.00,,,0.00,0,Wunderground v.1.15,2018-02-18 11:14:00,
2018-02-18 03:20:00,52.2,35.6,29.94,East,92,0.0,0.0,53,0.00,,,0.00,0,Wunderground v.1.15,2018-02-18 11:20:00,